Satellite-Ground Cal/Val Region Overpasses Predictions

Prediction of Satellite NPP Overpassing Cal/Val Region: PacNW

Region Location: (Latitude: 10.00, Longitude: 139.50) to (Latitude: 22.70, Longitude: 165.60).

Table of predicted overpasses for the next 14.0 days since TLE Epoch: 7/19/2019
Interval Starting Time Starting Location Ending Time Ending Location
1 07/20/2019 03:24:01 ( 10.00, 148.73) 07/20/2019 03:27:37 ( 22.68, 145.71)
2 07/20/2019 15:55:55 ( 22.66, 145.96) 07/20/2019 15:59:30 ( 10.04, 142.96)
3 07/21/2019 03:04:59 ( 10.01, 153.49) 07/21/2019 03:08:35 ( 22.69, 150.47)
4 07/21/2019 15:36:53 ( 22.65, 150.72) 07/21/2019 15:40:28 ( 10.03, 147.71)
5 07/22/2019 02:45:58 ( 10.02, 158.24) 07/22/2019 02:49:33 ( 22.64, 155.24)
6 07/22/2019 15:17:51 ( 22.70, 155.49) 07/22/2019 15:21:27 ( 10.02, 152.47)
7 07/23/2019 02:26:56 ( 10.03, 163.00) 07/23/2019 02:30:31 ( 22.65, 159.99)
8 07/23/2019 14:58:49 ( 22.68, 160.24) 07/23/2019 15:02:25 ( 10.00, 157.22)
9 07/24/2019 02:10:32 ( 19.26, 165.59) 07/24/2019 02:11:30 ( 22.66, 164.75)
10 07/24/2019 03:49:25 ( 10.05, 142.38) 07/24/2019 03:52:51 ( 22.14, 139.50)
11 07/24/2019 14:39:48 ( 22.67, 164.99) 07/24/2019 14:43:23 ( 10.05, 161.99)
12 07/24/2019 16:21:18 ( 22.67, 139.62) 07/24/2019 16:21:26 ( 22.20, 139.50)
13 07/25/2019 03:30:22 ( 10.00, 147.14) 07/25/2019 03:33:58 ( 22.68, 144.13)
14 07/25/2019 16:02:16 ( 22.66, 144.37) 07/25/2019 16:05:51 ( 10.03, 141.37)
15 07/26/2019 03:11:21 ( 10.01, 151.90) 07/26/2019 03:14:57 ( 22.69, 148.88)
16 07/26/2019 15:43:15 ( 22.64, 149.13) 07/26/2019 15:46:50 ( 10.02, 146.12)
17 07/27/2019 02:52:19 ( 10.03, 156.65) 07/27/2019 02:55:54 ( 22.65, 153.65)
18 07/27/2019 15:24:12 ( 22.69, 153.90) 07/27/2019 15:27:48 ( 10.01, 150.88)
19 07/28/2019 02:33:18 ( 10.04, 161.41) 07/28/2019 02:36:53 ( 22.66, 158.40)
20 07/28/2019 15:05:11 ( 22.68, 158.65) 07/28/2019 15:08:46 ( 10.06, 155.65)
21 07/29/2019 02:14:59 ( 12.52, 165.60) 07/29/2019 02:17:52 ( 22.67, 163.16)
22 07/29/2019 03:55:47 ( 10.06, 140.79) 07/29/2019 03:57:21 ( 15.58, 139.51)
23 07/29/2019 14:46:09 ( 22.66, 163.41) 07/29/2019 14:49:44 ( 10.04, 160.40)
24 07/30/2019 03:36:44 ( 10.01, 145.56) 07/30/2019 03:40:20 ( 22.69, 142.54)
25 07/30/2019 14:30:11 ( 11.91, 165.59) 07/30/2019 14:30:43 ( 10.03, 165.16)
26 07/30/2019 16:08:38 ( 22.64, 142.79) 07/30/2019 16:12:13 ( 10.02, 139.78)
27 07/31/2019 03:17:43 ( 10.03, 150.31) 07/31/2019 03:21:18 ( 22.65, 147.31)
28 07/31/2019 15:49:35 ( 22.69, 147.55) 07/31/2019 15:53:11 ( 10.01, 144.54)
29 08/01/2019 02:58:41 ( 10.04, 155.07) 08/01/2019 03:02:16 ( 22.66, 152.06)
30 08/01/2019 15:30:34 ( 22.68, 152.31) 08/01/2019 15:34:09 ( 10.06, 149.30)
31 08/02/2019 02:39:40 ( 10.06, 159.82) 08/02/2019 02:43:15 ( 22.68, 156.82)


NCC Satellite Cal/Val Overpasses Prediction Service
